Regional Weather Roundup
Issued by NWS Little Rock, AR

Home | Current Version | Previous Version | Text Only | Print | Product List | Glossary Off
Versions: 1 2 3 4 5 6 7 8 9 10 11 12 13 14 15 16 17 18 19 20 21 22 23 24 25 26 27 28 29 30 31 32 33 34 35 36 37 38 39 40 41 42 43 44 45 46 47 48 49 50

000
ASUS44 KLZK 281805
RWRLZK

WEATHER ROUNDUP FOR ARKANSAS
NATIONAL WEATHER SERVICE LITTLE ROCK AR
100 PM CDT FRI AUG 28 2015

NOTE: "FAIR" INDICATES FEW OR NO CLOUDS BELOW 12,000 FEET WITH NO
SIGNIFICANT WEATHER AND/OR OBSTRUCTIONS TO VISIBILITY.

ARZ001-003-010-029-281900-
NORTHWEST ARKANSAS

CITY           SKY/WX    TMP DP  RH WIND       PRES   REMARKS
FAYETTEVILLE   PTSUNNY   75  64  68 S7        30.07F
6HR MIN TEMP:  57; 6HR MAX TEMP:  77;

FORT SMITH     MOSUNNY   82  61  48 VRB6      30.04F
6HR MIN TEMP:  63; 6HR MAX TEMP:  82;

BENTONVILLE    CLOUDY    79  61  53 S7        30.07F
6HR MIN TEMP:  63; 6HR MAX TEMP:  79;

ROGERS         CLOUDY    77  65  66 SE8       30.08F
6HR MIN TEMP:  63; 6HR MAX TEMP:  77;

SILOAM SPGS    CLOUDY    75  61  60 S8        30.05F
6HR MIN TEMP:  63; 6HR MAX TEMP:  75;

SPRINGDALE     MOSUNNY   79  63  57 S8        30.09F
$$

ARZ004-005-016-281900-
NORTH CENTRAL ARKANSAS

CITY           SKY/WX    TMP DP  RH WIND       PRES   REMARKS
BATESVILLE     SUNNY     81  61  50 E7        30.09F
6HR MIN TEMP:  57; 6HR MAX TEMP:  82;

FLIPPIN        SUNNY     81  59  47 SE9       30.07F
6HR MIN TEMP:  57; 6HR MAX TEMP:  81;

MTN HOME       SUNNY     78  60  53 SE8       30.08F
6HR MIN TEMP:  58; 6HR MAX TEMP:  78;

$$

ARZ040-041-281900-
WEST CENTRAL ARKANSAS

CITY           SKY/WX    TMP DP  RH WIND       PRES   REMARKS
MENA           MOSUNNY   82  63  51 CALM      30.08F
MOUNT IDA      SUNNY     82  60  47 VRB5      30.06F
6HR MIN TEMP:  58; 6HR MAX TEMP:  82;

$$

ARZ009-017-025-026-028-281900-
NORTHEAST ARKANSAS

CITY           SKY/WX    TMP DP  RH WIND       PRES   REMARKS
JONESBORO      MOSUNNY   82  61  48 S7        30.08F
6HR MIN TEMP:  60; 6HR MAX TEMP:  82;

NEWPORT        SUNNY     83  62  48 CALM      30.10F
6HR MIN TEMP:  59; 6HR MAX TEMP:  84;

WALNUT RIDGE   MOSUNNY   81  59  47 SE6       30.08F
6HR MIN TEMP:  59; 6HR MAX TEMP:  81;

BLYTHEVILLE    SUNNY     85  64  49 CALM      30.08F HX  86
6HR MIN TEMP:  59; 6HR MAX TEMP:  85;

$$

ARZ022-023-033-042-044-281900-
CENTRAL ARKANSAS

CITY           SKY/WX    TMP DP  RH WIND       PRES   REMARKS
LITTLE ROCK    MOSUNNY   84  57  39 E8        30.07F
6HR MIN TEMP:  63; 6HR MAX TEMP:  84;

N LITTLE ROCK  MOSUNNY   82  62  50 E10       30.07F
6HR MIN TEMP:  64; 6HR MAX TEMP:  82;

JACKSONVILLE   SUNNY     83  58  41 VRB2      30.07F
6HR MIN TEMP:  58; 6HR MAX TEMP:  83;

SEARCY         SUNNY     83  61  47 E9        30.09F
6HR MIN TEMP:  58; 6HR MAX TEMP:  83;

HOT SPRINGS    SUNNY     82  58  43 S7        30.08F
6HR MIN TEMP:  61; 6HR MAX TEMP:  82;

RUSSELLVILLE   SUNNY     81  62  52 VRB6      30.07F
6HR MIN TEMP:  60; 6HR MAX TEMP:  81;

$$

ARZ036-281900-
EAST ARKANSAS

CITY           SKY/WX    TMP DP  RH WIND       PRES   REMARKS
WEST MEMPHIS   SUNNY     85  64  49 VRB5      30.06F HX  86
6HR MIN TEMP:  60; 6HR MAX TEMP:  85;

$$

ARZ050-053-066-070-073-281900-
SOUTHWEST ARKANSAS

CITY           SKY/WX    TMP DP  RH WIND       PRES   REMARKS
ARKADELPHIA    FAIR      85  61  44 VRB3      30.07F HX  85
6HR MIN TEMP:  58; 6HR MAX TEMP:  86;

CAMDEN         SUNNY     84  59  42 E3        30.06F
TEXARKANA      SUNNY     84  59  42 E6        30.06F
6HR MIN TEMP:  61; 6HR MAX TEMP:  85;

EL DORADO      SUNNY     84  58  40 VRB3      30.06F
6HR MIN TEMP:  57; 6HR MAX TEMP:  85;

DE QUEEN       SUNNY     82  61  48 VRB3      30.04F
6HR MIN TEMP:  57; 6HR MAX TEMP:  83;

$$

ARZ056-057-069-281900-
SOUTHEAST ARKANSAS

CITY           SKY/WX    TMP DP  RH WIND       PRES   REMARKS
PINE BLUFF     SUNNY     82  59  45 CALM      30.07F
6HR MIN TEMP:  59; 6HR MAX TEMP:  82;

STUTTGART      SUNNY     82  61  47 CALM      30.08S
6HR MIN TEMP:  59; 6HR MAX TEMP:  84;

MONTICELLO     SUNNY     84  60  44 VRB5      30.05F
6HR MIN TEMP:  59; 6HR MAX TEMP:  85;


$$




USA.gov is the U.S. government's official web portal to all federal, state and local government web resources and services.